Weather History for Chicopee, MA

Change the Weather History Date:

Thursday, October 11, 2012

  Actual Average Record
Temperature  
Mean Temperature 48 °F -  
Max Temperature 58 °F 61 °F 75 °F (2001)
Min Temperature 39 °F 39 °F 30 °F (1996)
Degree Days  
Heating Degree Days 17    
Moisture  
Dew Point 36 °F    
Average Humidity 64    
Maximum Humidity 92    
Minimum Humidity 38    
Precipitation  
Precipitation 0.00 in - - ()
Sea Level Pressure  
Sea Level Pressure 30.07 in    
Wind  
Wind Speed 7 mph (West)    
Max Wind Speed 17 mph    
Max Gust Speed 25 mph    
Visibility 10 miles    
Events      
Averages and records for this station are not official NWS values.
T = Trace of Precipitation, MM = Missing Value Source: NWS Daily Summary

Daily Weather History Graph

Daily Weather History Graph

Search for Another Location

Airport:

Trip Planner

Search our weather history database for the weather conditions in past years. The results will help you decide how hot, cold, wet, or windy it might be!

Date:

Astronomy

Oct. 11, 2012 Rise Set
Actual Time 6:58 AM EDT 6:14 PM EDT
Civil Twilight 6:30 AM EDT 6:42 PM EDT
Nautical Twilight 5:58 AM EDT 7:14 PM EDT
Astronomical Twilight 5:25 AM EDT 7:46 PM EDT
Moon 2:29 AM EDT (10/11) 3:52 PM EDT (10/11)
Length of Visible Light 12h 11m
Length of Day
11h 15m
Waning Crescent, 18% of the Moon is Illuminated
Oct 11
Waning Crescent
Oct 15
New
Oct 21
First Quarter
Oct 29
Full
Nov 6
Last Quarter

Hourly Weather History & Observations

Time (EDT) Temp. Windchill Dew Point Humidity Pressure Visibility Wind Dir Wind Speed Gust Speed Precip Events Conditions
12:55 AM 48.6 °F - 40.6 °F 74% 29.88 in 10.0 mi West 5.8 mph - N/A   Overcast
1:55 AM 46.0 °F 43.9 °F 39.0 °F 76% 29.91 in 10.0 mi WSW 4.6 mph - N/A   Clear
2:55 AM 44.8 °F 41.0 °F 37.0 °F 74% 29.92 in 10.0 mi WSW 6.9 mph - N/A   Clear
3:55 AM 46.4 °F 41.5 °F 35.8 °F 67% 29.95 in 10.0 mi West 10.4 mph 21.9 mph N/A   Clear
4:55 AM 46.0 °F 41.0 °F 34.7 °F 65% 29.97 in 10.0 mi WNW 10.4 mph 24.2 mph N/A   Clear
5:55 AM 42.8 °F 40.1 °F 34.0 °F 71% 30.01 in 10.0 mi WNW 4.6 mph - N/A   Clear
6:55 AM 43.9 °F 39.3 °F 34.2 °F 69% 30.04 in 10.0 mi West 8.1 mph - N/A   Partly Cloudy
7:55 AM 45.0 °F 40.6 °F 34.9 °F 68% 30.07 in 10.0 mi SW 8.1 mph - N/A   Mostly Cloudy
8:55 AM 47.7 °F - 34.7 °F 61% 30.11 in 10.0 mi West 8.1 mph 17.3 mph N/A   Partly Cloudy
9:55 AM 50.5 °F - 35.8 °F 57% 30.13 in 10.0 mi West 10.4 mph 25.3 mph N/A   Scattered Clouds
10:55 AM 52.2 °F - 36.0 °F 54% 30.14 in 10.0 mi WNW 12.7 mph 21.9 mph N/A   Partly Cloudy
11:55 AM 53.8 °F - 36.0 °F 51% 30.13 in 10.0 mi NW 17.3 mph 23.0 mph N/A   Clear
12:55 PM 55.0 °F - 34.9 °F 47% 30.12 in 10.0 mi West 15.0 mph - N/A   Clear
1:55 PM 57.4 °F - 34.5 °F 42% 30.12 in 10.0 mi NW 12.7 mph - N/A   Clear
2:55 PM 57.6 °F - 31.8 °F 38% 30.11 in 10.0 mi WNW 15.0 mph - N/A   Clear
3:55 PM 57.7 °F - 33.3 °F 40% 30.12 in 10.0 mi NW 8.1 mph - N/A   Clear
4:55 PM 57.2 °F - 32.0 °F 38% 30.12 in 10.0 mi West 8.1 mph - N/A   Clear
5:55 PM 54.5 °F - 32.5 °F 43% 30.12 in 10.0 mi West 5.8 mph - N/A   Clear
6:55 PM 47.5 °F - 38.1 °F 70% 30.12 in 10.0 mi Calm Calm - N/A   Clear
7:55 PM 41.2 °F - 38.5 °F 90% 30.12 in 10.0 mi Calm Calm - N/A   Clear
8:55 PM 39.7 °F 37.6 °F 37.6 °F 92% 30.13 in 10.0 mi SSE 3.5 mph - N/A   Clear
9:55 PM 40.6 °F - 36.5 °F 85% 30.12 in 10.0 mi Calm Calm - N/A   Clear
10:55 PM 39.6 °F - 37.0 °F 91% 30.12 in 10.0 mi Calm Calm - N/A   Clear
11:55 PM 43.3 °F 39.2 °F 36.9 °F 78% 30.11 in 10.0 mi SSE 6.9 mph - N/A   Clear